Dansville, NY

2:13 PM EST on February 26, 2017 (GMT -0500)
Dansville Municipal

Weather History for KDSV - November, 2012

Change the Weather History Date:

Wednesday, November 14, 2012

  Actual Average Record
Temperature  
Mean Temperature 34 °F -  
Max Temperature 39 °F 45 °F 72 °F (1961)
Min Temperature 28 °F 30 °F 14 °F (1986)
Degree Days  
Heating Degree Days 32    
Moisture  
Dew Point 27 °F    
Average Humidity 72    
Maximum Humidity 88    
Minimum Humidity 55    
Precipitation  
Precipitation 0.00 in - - ()
Sea Level Pressure  
Sea Level Pressure 30.59 in    
Wind  
Wind Speed 1 mph (NNW)    
Max Wind Speed 7 mph    
Max Gust Speed -    
Visibility 10 miles    
Events      
Averages and records for this station are not official NWS values.
T = Trace of Precipitation, MM = Missing Value Source: NWS Daily Summary

Daily Weather History Graph

Daily Weather History Graph

Search for Another Location

Airport or City:

Trip Planner

Search our weather history database for the weather conditions in past years. The results will help you decide how hot, cold, wet, or windy it might be!

Date:

Astronomy

Nov. 14, 2012 Rise Set
Actual Time 7:01 AM EST 4:48 PM EST
Civil Twilight 6:31 AM EST 5:19 PM EST
Nautical Twilight 5:57 AM EST 5:53 PM EST
Astronomical Twilight 5:23 AM EST 6:26 PM EST
Moon 7:49 AM EST (11/14) 5:34 PM EST (11/14)
Length of Visible Light 10h 47m
Length of Day
9h 47m
New Moon, 1% of the Moon is Illuminated
Nov 14
New Moon
Nov 20
First Quarter
Nov 28
Full
Dec 6
Last Quarter
Dec 13
New

Hourly Weather History & Observations

Time (EST) Temp. Windchill Dew Point Humidity Pressure Visibility Wind Dir Wind Speed Gust Speed Precip Events Conditions
12:54 AM 34.0 °F - 30.0 °F 85% 30.58 in 10.0 mi Calm Calm - N/A   Overcast
1:54 AM 35.1 °F - 28.9 °F 78% 30.59 in 10.0 mi Calm Calm - N/A   Overcast
2:54 AM 34.0 °F - 27.0 °F 75% 30.59 in 10.0 mi Calm Calm - N/A   Overcast
3:54 AM 34.0 °F - 28.9 °F 82% 30.59 in 10.0 mi Calm Calm - N/A   Overcast
4:54 AM 34.0 °F - 28.9 °F 82% 30.60 in 10.0 mi Calm Calm - N/A   Overcast
5:54 AM 34.0 °F - 27.0 °F 75% 30.62 in 10.0 mi Calm Calm - N/A   Overcast
6:54 AM 34.0 °F - 28.0 °F 79% 30.63 in 10.0 mi Calm Calm - N/A   Overcast
7:54 AM 34.0 °F - 28.9 °F 82% 30.64 in 10.0 mi Calm Calm - N/A   Overcast
8:54 AM 35.1 °F - 27.0 °F 72% 30.65 in 10.0 mi Calm Calm - N/A   Overcast
9:54 AM 37.0 °F - 25.0 °F 62% 30.64 in 10.0 mi Calm Calm - N/A   Overcast
10:54 AM 39.0 °F - 24.1 °F 55% 30.64 in 10.0 mi Calm Calm - N/A   Overcast
11:54 AM 39.0 °F 35.7 °F 25.0 °F 57% 30.62 in 10.0 mi NW 4.6 mph - N/A   Overcast
12:54 PM 39.0 °F 35.7 °F 26.1 °F 60% 30.60 in 10.0 mi NW 4.6 mph - N/A   Overcast
1:54 PM 39.9 °F 35.8 °F 26.1 °F 58% 30.58 in 10.0 mi NW 5.8 mph - N/A   Overcast
2:54 PM 39.0 °F 34.8 °F 27.0 °F 62% 30.57 in 10.0 mi NW 5.8 mph - N/A   Overcast
3:54 PM 39.9 °F - 28.0 °F 63% 30.58 in 10.0 mi Calm Calm - N/A   Overcast
4:54 PM 39.0 °F 34.8 °F 26.1 °F 60% 30.56 in 10.0 mi NE 5.8 mph - N/A   Overcast
5:54 PM 37.9 °F 32.7 °F 26.1 °F 62% 30.56 in 10.0 mi East 6.9 mph - N/A   Overcast
6:54 PM 37.0 °F - 25.0 °F 62% 30.57 in 10.0 mi Calm Calm - N/A   Partly Cloudy
7:54 PM 32.0 °F - 25.0 °F 75% 30.56 in 10.0 mi Calm Calm - N/A   Clear
8:54 PM 30.0 °F - 25.0 °F 82% 30.56 in 10.0 mi Calm Calm - N/A   Clear
9:54 PM 28.9 °F - 25.0 °F 85% 30.55 in 10.0 mi Calm Calm - N/A   Clear
10:54 PM 28.9 °F - 25.0 °F 85% 30.54 in 10.0 mi Calm Calm - N/A   Clear
11:54 PM 28.0 °F 24.2 °F 25.0 °F 88% 30.54 in 10.0 mi SSE 3.5 mph - N/A   Clear